Tiempo cada hora Aliseda

Hoy, 19 Enero, Martes

Tiempo Temperatura Precipitaciones Viento Presión Humedad
00:00 +3°C° 0 mm 1 mps 730 mmHg 87%
01:00 +3°C° 0 mm 1 mps 729 mmHg 87%
02:00 +3°C° 0 mm 1 mps 729 mmHg 88%
03:00 +2°C° 0 mm 1 mps 728 mmHg 89%
04:00 +2°C° 0 mm 1 mps 728 mmHg 89%
05:00 +2°C° 0 mm 1 mps 728 mmHg 90%
06:00 +2°C° 0 mm 1 mps 728 mmHg 91%
07:00 +2°C° 0 mm 1 mps 728 mmHg 89%
08:00 +3°C° 0 mm 1 mps 728 mmHg 87%
09:00 +4°C° 0 mm 1 mps 728 mmHg 85%
10:00 +6°C° 0 mm 1 mps 728 mmHg 81%
11:00 +7°C° 0 mm 1 mps 728 mmHg 78%
12:00 +8°C° 0 mm 2 mps 728 mmHg 75%
13:00 +8°C° 0 mm 2 mps 727 mmHg 75%
14:00 +9°C° 0 mm 2 mps 726 mmHg 75%
15:00 +9°C° 0 mm 2 mps 725 mmHg 76%
16:00 +8°C° 0 mm 2 mps 725 mmHg 79%
17:00 +8°C° 0 mm 2 mps 725 mmHg 82%
18:00 +7°C° 0 mm 2 mps 725 mmHg 86%
19:00 +7°C° 0 mm 2 mps 725 mmHg 85%
20:00 +7°C° 0 mm 2 mps 725 mmHg 85%
21:00 +7°C° 0 mm 3 mps 724 mmHg 85%
22:00 +7°C° 0 mm 3 mps 724 mmHg 86%
23:00 +7°C° 0 mm 3 mps 723 mmHg 87%

Mañana, 20 Enero, Miércoles

Tiempo Temperatura Precipitaciones Viento Presión Humedad
00:00 +6°C° 0 mm 4 mps 723 mmHg 88%
01:00 +6°C° 0 mm 4 mps 722 mmHg 89%
02:00 +7°C° 0 mm 3 mps 721 mmHg 89%
03:00 +8°C° 0 mm 3 mps 720 mmHg 89%
04:00 +7°C° 1.3 mm 4 mps 720 mmHg 91%
05:00 +7°C° 1.3 mm 5 mps 719 mmHg 93%
06:00 +7°C° 1.3 mm 6 mps 719 mmHg 95%
07:00 +7°C° 0.6 mm 6 mps 718 mmHg 94%
08:00 +8°C° 0.6 mm 6 mps 718 mmHg 94%
09:00 +8°C° 0.6 mm 6 mps 718 mmHg 94%
10:00 +9°C° 0.7 mm 6 mps 717 mmHg 92%
11:00 +10°C° 0.7 mm 6 mps 717 mmHg 90%
12:00 +10°C° 0.7 mm 6 mps 717 mmHg 87%
13:00 +10°C° 0.2 mm 6 mps 717 mmHg 83%
14:00 +11°C° 0.2 mm 6 mps 717 mmHg 79%
15:00 +11°C° 0.2 mm 6 mps 716 mmHg 75%
16:00 +10°C° 0.7 mm 6 mps 717 mmHg 81%
17:00 +9°C° 0.7 mm 5 mps 717 mmHg 87%
18:00 +8°C° 0.7 mm 4 mps 717 mmHg 93%
19:00 +8°C° 0.1 mm 5 mps 718 mmHg 94%
20:00 +8°C° 0.1 mm 5 mps 718 mmHg 94%
21:00 +8°C° 0.1 mm 5 mps 719 mmHg 94%
22:00 +8°C° 0.1 mm 5 mps 719 mmHg 94%
23:00 +8°C° 0.1 mm 4 mps 720 mmHg 94%

Pasado mañana, 21 Enero, Jueves

Tiempo Temperatura Precipitaciones Viento Presión Humedad
00:00 +8°C° 0.1 mm 4 mps 720 mmHg 94%
01:00 +8°C° 0.1 mm 4 mps 720 mmHg 94%
02:00 +8°C° 0.1 mm 4 mps 721 mmHg 95%
03:00 +8°C° 0.1 mm 4 mps 721 mmHg 95%
04:00 +8°C° 0.1 mm 4 mps 721 mmHg 95%
05:00 +8°C° 0.1 mm 4 mps 721 mmHg 94%
06:00 +8°C° 0.1 mm 4 mps 722 mmHg 94%
07:00 +8°C° 0.1 mm 5 mps 722 mmHg 93%
08:00 +8°C° 0.1 mm 5 mps 722 mmHg 93%
09:00 +9°C° 0.1 mm 5 mps 722 mmHg 92%
10:00 +9°C° 0.1 mm 6 mps 722 mmHg 91%
11:00 +9°C° 0.1 mm 7 mps 722 mmHg 90%
12:00 +10°C° 0.1 mm 7 mps 721 mmHg 90%
13:00 +10°C° 0.4 mm 8 mps 721 mmHg 90%
14:00 +10°C° 0.4 mm 8 mps 721 mmHg 90%
15:00 +10°C° 0.4 mm 8 mps 720 mmHg 91%
16:00 +10°C° 0.6 mm 7 mps 720 mmHg 91%
17:00 +10°C° 0.6 mm 6 mps 721 mmHg 91%
18:00 +10°C° 0.6 mm 5 mps 721 mmHg 92%
19:00 +10°C° 0 mm 4 mps 721 mmHg 93%
20:00 +9°C° 0 mm 3 mps 721 mmHg 95%
21:00 +8°C° 0 mm 3 mps 722 mmHg 97%
22:00 +8°C° 0 mm 3 mps 722 mmHg 97%
23:00 +9°C° 0 mm 3 mps 722 mmHg 97%

22 Enero, Viernes

Tiempo Temperatura Precipitaciones Viento Presión Humedad
00:00 +9°C° 0 mm 3 mps 722 mmHg 97%
01:00 +9°C° 0.1 mm 3 mps 721 mmHg 96%
02:00 +8°C° 0.1 mm 4 mps 721 mmHg 96%
03:00 +10°C° 0.1 mm 4 mps 721 mmHg 95%
04:00 +9°C° 0.6 mm 5 mps 720 mmHg 94%
05:00 +9°C° 0.6 mm 5 mps 719 mmHg 93%
06:00 +9°C° 0.6 mm 6 mps 719 mmHg 92%
07:00 +8°C° 0.3 mm 6 mps 720 mmHg 90%
08:00 +8°C° 0.3 mm 6 mps 720 mmHg 88%
09:00 +7°C° 0.3 mm 6 mps 721 mmHg 86%
10:00 +8°C° 0 mm 7 mps 721 mmHg 79%
11:00 +9°C° 0 mm 7 mps 722 mmHg 73%
12:00 +10°C° 0 mm 7 mps 722 mmHg 66%
13:00 +9°C° 0.2 mm 7 mps 722 mmHg 67%
14:00 +9°C° 0.2 mm 7 mps 722 mmHg 68%
15:00 +9°C° 0.2 mm 7 mps 723 mmHg 68%
16:00 +8°C° 0 mm 6 mps 723 mmHg 72%
17:00 +7°C° 0 mm 4 mps 723 mmHg 76%
18:00 +7°C° 0 mm 3 mps 724 mmHg 81%
19:00 +5°C° 0 mm 3 mps 724 mmHg 84%
20:00 +5°C° 0 mm 3 mps 724 mmHg 87%
21:00 +4°C° 0 mm 3 mps 725 mmHg 90%
22:00 +5°C° 0 mm 3 mps 725 mmHg 90%
23:00 +5°C° 0 mm 3 mps 725 mmHg 90%

23 Enero, Sábado

Tiempo Temperatura Precipitaciones Viento Presión Humedad
00:00 +5°C° 0 mm 3 mps 726 mmHg 89%
01:00 +5°C° 0 mm 3 mps 726 mmHg 90%
02:00 +5°C° 0 mm 3 mps 725 mmHg 92%
03:00 +5°C° 0 mm 4 mps 725 mmHg 93%
04:00 +5°C° 0 mm 4 mps 725 mmHg 93%
05:00 +6°C° 0 mm 4 mps 725 mmHg 92%
06:00 +6°C° 0 mm 4 mps 724 mmHg 92%
07:00 +6°C° 0 mm 4 mps 725 mmHg 90%
08:00 +7°C° 0 mm 4 mps 725 mmHg 89%
09:00 +7°C° 0 mm 4 mps 725 mmHg 87%
10:00 +7°C° 0 mm 5 mps 725 mmHg 86%
11:00 +8°C° 0 mm 5 mps 725 mmHg 85%
12:00 +9°C° 0 mm 6 mps 724 mmHg 84%
13:00 +9°C° 0.2 mm 6 mps 724 mmHg 87%
14:00 +9°C° 0.2 mm 6 mps 723 mmHg 89%
15:00 +9°C° 0.2 mm 6 mps 722 mmHg 92%
16:00 +9°C° 0.3 mm 6 mps 722 mmHg 93%
17:00 +10°C° 0.3 mm 5 mps 722 mmHg 94%
18:00 +10°C° 0.3 mm 5 mps 722 mmHg 95%
19:00 +10°C° 0.4 mm 5 mps 722 mmHg 95%
20:00 +12°C° 0.4 mm 5 mps 722 mmHg 95%
21:00 +11°C° 0.4 mm 6 mps 722 mmHg 96%
22:00 +11°C° 0.7 mm 6 mps 722 mmHg 95%
23:00 +11°C° 0.7 mm 6 mps 722 mmHg 95%

24 Enero, Domingo

Tiempo Temperatura Precipitaciones Viento Presión Humedad
00:00 +11°C° 0.7 mm 6 mps 722 mmHg 95%
01:00 +11°C° 0.6 mm 6 mps 722 mmHg 95%
02:00 +11°C° 0.6 mm 6 mps 722 mmHg 95%
03:00 +11°C° 0.6 mm 6 mps 722 mmHg 95%
04:00 +12°C° 0.3 mm 5 mps 722 mmHg 95%
05:00 +10°C° 0.3 mm 5 mps 722 mmHg 95%
06:00 +11°C° 0.3 mm 4 mps 722 mmHg 95%
07:00 +11°C° 0 mm 4 mps 723 mmHg 95%
08:00 +11°C° 0 mm 4 mps 723 mmHg 95%
09:00 +11°C° 0 mm 4 mps 724 mmHg 94%
10:00 +12°C° 0.1 mm 4 mps 724 mmHg 92%
11:00 +12°C° 0.1 mm 4 mps 724 mmHg 90%
12:00 +13°C° 0.1 mm 5 mps 725 mmHg 88%
13:00 +13°C° 0.1 mm 4 mps 724 mmHg 87%
14:00 +13°C° 0.1 mm 4 mps 724 mmHg 85%
15:00 +14°C° 0.1 mm 4 mps 723 mmHg 84%
16:00 +13°C° 0.1 mm 3 mps 724 mmHg 87%
17:00 +12°C° 0.1 mm 3 mps 724 mmHg 91%
18:00 +12°C° 0.1 mm 2 mps 724 mmHg 94%
19:00 +12°C° 0 mm 2 mps 724 mmHg 94%
20:00 +10°C° 0 mm 2 mps 724 mmHg 95%
21:00 +10°C° 0 mm 2 mps 725 mmHg 95%
22:00 +11°C° 0.1 mm 1 mps 725 mmHg 95%
23:00 +11°C° 0.1 mm 1 mps 725 mmHg 95%
Mostrar más

Necesitamos Su Consentimiento

Meteoprog y nuestros Proveedores de Servicios pueden almacenar y acceder a sus datos personales como cookies, identificadores de dispositivo u otras tecnologías similares de su dispositivo y procesar dichos datos para personalizar contenido y anuncios, además de ofrecer funciones de redes sociales y analizar el tráfico.

  • Almacenar y/o acceder a información en su dispositivo

    Se puede almacenar o acceder a cookies, identificadores de dispositivo u otra información de su dispositivo para los fines anteriormente indicados.

  • Anuncios y contenido personalizados, medición de anuncios y contenido, percepciones del público, y desarrollo de productos

    Los anuncios y el contenido pueden personalizarse en base a su perfil. Se pueden añadir más datos para personalizar mejor los anuncios y contenidos. Se puede medir el rendimiento de los anuncios y contenidos. Se puede obtener la percepción sobre el público que ha visto los anuncios y contenidos. Dichos datos pueden usarse para desarrollar o mejorar la experiencia del usuario, sistemas y software.

Al hacer clic en ‘Estoy De Acuerdo’ usted permitirá el uso de las cookies, identificadores de dispositivo, balizas web u otras tecnologías similares indicadas. Su configuración puede cambiarse desde el navegador de su dispositivo.

Para ciertos fines, los intereses legítimos pueden ser considerados por encima del consentimiento. Puede leer más sobre ello en nuestra Política de Privacidad y Cookies.